Theta_e
318 317 319 321 323 326 331 334 333 337 340 335 333 334 350 353 359 362 351 352 344 347 349 348 348 347 341 334 336 334 333 335 336 334 335 333 335 336 337 340 341 340 337 327 321 318 318 321 326
317 316 322 319 324 329 332 336 343 341 337 334 334 334 352 355 350 351 352 350 339 345 348 349 348 347 343 336 338 337 333 335 336 334 335 334 334 335 338 340 339 335 327 321 319 317 318 321 325
316 319 320 319 323 328 331 340 338 340 337 337 335 335 342 349 345 344 351 350 340 345 347 349 348 347 345 340 339 340 334 335 336 335 334 334 334 334 336 336 333 329 321 319 317 316 317 322 326
319 316 317 319 321 325 331 333 339 340 337 336 335 339 340 349 349 351 351 350 340 347 348 349 349 347 347 344 341 342 340 334 336 336 334 334 335 335 336 335 332 327 321 319 317 316 315 317 324
318 314 317 321 322 326 328 330 338 340 334 335 334 341 344 346 345 352 352 351 348 350 350 346 348 348 347 346 345 344 344 338 336 337 336 335 335 334 333 331 327 322 321 318 318 318 317 316 316
314 315 318 319 321 325 325 324 333 335 333 332 334 342 343 346 345 346 351 351 350 349 349 344 344 345 346 346 346 345 345 344 337 337 338 337 336 333 331 328 324 322 320 318 318 318 318 318 318
315 315 317 319 321 323 324 324 325 330 331 329 329 334 330 338 346 346 348 350 349 351 345 343 342 343 343 343 343 344 345 346 342 337 338 340 338 334 331 326 322 320 320 319 318 318 319 318 318
315 314 316 317 320 321 322 324 325 326 328 327 327 331 330 329 340 346 348 348 350 352 350 341 341 342 342 343 343 343 345 347 346 339 339 342 340 335 331 327 322 320 319 319 319 318 318 318 317
315 313 313 315 316 318 319 320 322 326 327 325 325 327 327 328 330 334 345 351 355 355 353 345 340 342 342 342 343 344 345 347 347 343 341 343 342 337 332 326 322 320 320 320 319 318 318 318 318
312 314 315 317 317 317 318 318 319 322 323 324 324 324 325 327 327 329 334 342 351 355 354 349 340 341 342 343 341 344 348 348 348 346 343 344 344 339 333 329 324 321 320 320 319 319 318 319 321
314 314 317 318 318 318 318 319 318 320 321 321 321 322 320 321 324 325 329 336 345 352 352 349 341 341 342 347 344 341 345 348 348 347 346 346 345 341 339 332 326 331 331 321 320 320 320 321 325
313 315 317 317 318 317 319 319 319 319 320 320 319 319 320 320 319 320 323 328 338 347 351 348 347 347 344 345 345 344 339 341 346 348 347 346 345 342 342 339 337 332 329 326 320 320 322 329 341
314 315 317 318 317 315 318 318 318 317 319 318 318 319 317 319 318 320 321 326 335 349 352 350 348 347 348 346 347 345 344 340 339 341 349 347 345 341 342 340 338 337 337 333 324 325 337 341 342
314 315 316 316 316 317 317 317 318 317 318 318 318 317 317 317 317 319 320 323 330 342 349 351 349 348 347 347 352 348 347 345 341 339 338 347 343 341 339 340 339 340 341 339 332 332 338 343 343
315 315 315 316 317 316 317 316 317 317 317 317 317 318 317 317 319 318 320 322 324 339 344 353 350 345 335 334 350 353 349 344 343 341 339 338 341 342 342 341 340 342 343 341 339 338 339 340 344
315 315 314 315 317 317 315 315 317 317 317 317 317 318 318 317 317 320 321 322 327 335 344 345 344 338 335 351 355 351 354 349 344 341 339 340 339 342 342 343 341 340 343 342 341 341 340 339 338
314 315 316 316 316 317 317 315 317 317 316 318 317 318 319 318 318 321 321 323 324 329 340 343 340 338 339 340 338 354 351 352 350 343 340 341 341 342 344 341 344 341 340 341 343 343 341 340 343
315 316 316 317 317 316 316 316 316 316 317 319 318 318 319 318 317 321 320 320 324 324 325 329 329 329 347 349 353 355 354 352 353 352 350 345 344 343 345 342 343 344 342 340 340 341 340 341 340
315 316 316 316 317 317 315 316 316 316 316 317 316 317 317 317 318 321 323 321 322 324 324 323 322 322 330 334 353 352 355 354 354 353 352 352 348 347 344 343 344 345 347 346 343 342 341 340 340
316 316 316 317 318 317 315 316 317 317 317 317 317 317 317 318 319 319 322 322 325 324 323 324 324 324 325 328 329 346 352 352 352 353 353 351 351 348 347 347 345 349 349 346 348 347 346 344 343
317 317 318 318 318 317 316 316 317 319 319 318 317 317 318 318 319 319 319 323 324 325 328 326 325 325 326 330 328 331 331 332 346 351 350 351 349 349 350 349 349 347 348 350 349 350 348 346 344
317 317 317 318 318 317 317 316 316 319 318 318 318 317 316 318 319 320 321 321 324 324 324 327 328 332 328 327 332 334 335 338 337 337 341 345 349 344 333 330 340 344 347 348 347 349 350 346 343
317 318 317 318 316 316 316 315 315 318 318 318 318 319 318 316 317 322 321 322 322 323 324 323 324 326 330 331 330 330 330 329 331 332 333 336 343 344 334 329 337 343 332 341 347 349 350 347 344
319 318 317 317 315 316 316 316 316 317 318 320 324 322 321 322 320 319 320 321 322 323 323 323 323 323 323 324 325 328 333 333 332 331 333 334 333 338 341 344 344 340 327 345 345 345 343 342 342
317 316 318 318 318 318 317 319 317 321 324 326 324 322 321 320 319 318 317 317 320 321 321 322 321 321 322 323 322 323 327 330 332 332 332 333 334 335 334 336 339 343 343 342 341 339 338 337 339
321 319 319 323 322 324 324 325 324 323 326 323 323 321 320 319 318 317 317 317 319 321 321 321 321 321 321 321 322 321 323 328 329 329 329 332 333 332 332 332 334 339 338 339 339 338 337 326 325
323 322 322 325 325 325 324 323 322 325 325 325 324 324 322 320 317 317 317 318 319 320 321 320 320 320 321 321 320 320 321 321 322 323 325 332 333 334 335 335 336 338 335 339 337 335 331 329 328
322 321 327 328 333 331 325 324 327 328 327 326 325 323 322 319 318 317 316 318 319 317 316 318 319 320 321 320 320 319 318 318 319 320 321 322 327 330 332 334 335 337 339 341 338 336 333 326 327
320 320 324 324 326 332 326 323 326 326 324 324 322 322 321 319 318 318 316 317 316 316 315 316 316 320 320 320 319 320 319 318 318 318 318 320 321 325 327 332 334 335 339 339 335 330 327 326 326
317 319 325 329 331 327 328 327 322 323 321 321 320 320 320 319 316 315 314 316 316 316 316 315 315 316 317 316 315 315 315 318 319 319 318 319 319 319 321 325 327 331 334 336 329 326 324 327 329
Wind_Speed
19 21 21 9 1 2 7 8 10 8 1 8 8 6 9 7 5 6 22 29 31 32 29 29 29 28 26 25 23 22 21 20 19 19 18 18 18 18 18 17 15 13 11 9 9 9 9 10 10
20 20 7 3 2 3 6 4 5 7 6 10 8 5 15 11 10 15 14 29 33 32 29 30 29 28 26 25 22 21 21 20 19 19 18 17 16 16 15 14 13 11 10 10 9 9 9 8 8
17 15 1 3 4 7 4 4 5 7 8 4 6 3 6 8 12 5 32 29 30 30 27 29 29 28 26 24 23 21 21 20 19 18 17 17 16 14 13 12 11 11 10 10 9 8 7 7 6
8 6 3 0 9 12 14 12 2 6 10 5 5 9 5 16 5 20 33 26 27 27 24 27 27 25 25 24 22 21 20 21 19 18 17 16 15 14 12 11 10 9 9 9 9 8 7 6 5
7 2 2 4 8 13 12 11 12 3 6 5 6 5 5 17 29 37 31 27 27 25 20 25 25 24 23 23 22 21 20 20 20 19 17 16 15 13 12 12 11 10 9 8 7 6 5 5 4
2 2 2 5 8 14 7 8 5 2 3 8 2 7 3 24 26 26 31 30 30 27 22 25 24 23 22 21 21 21 21 21 21 20 18 16 15 14 13 12 12 11 10 9 8 7 6 5 4
4 1 6 8 10 15 13 8 6 2 4 5 5 7 4 9 21 23 24 36 34 30 26 29 26 23 21 20 20 20 21 22 21 21 19 16 15 14 14 13 13 12 12 11 10 9 7 7 6
2 3 4 7 11 15 15 5 5 5 3 5 4 4 2 2 7 15 24 35 33 29 24 28 27 25 22 20 17 17 20 22 21 21 20 18 16 15 15 14 14 13 13 12 11 10 9 8 7
6 2 5 8 11 15 10 10 7 3 6 7 3 5 8 6 1 5 17 30 32 28 25 24 28 24 21 18 17 16 17 22 23 21 21 19 18 17 17 17 17 15 14 13 12 11 10 9 8
6 5 9 10 13 8 9 7 7 5 5 2 5 5 2 9 7 10 10 15 29 32 29 27 30 25 21 17 18 19 19 22 24 25 24 23 21 19 18 18 17 17 16 15 15 13 12 11 10
7 10 8 14 16 9 6 6 4 3 3 2 3 1 7 6 8 12 14 11 26 40 35 30 30 23 22 20 17 20 20 22 24 25 24 23 21 18 17 20 21 21 19 18 18 17 16 15 14
7 11 10 19 15 6 6 6 6 1 3 5 6 6 1 4 7 7 13 19 20 18 28 29 32 30 22 25 22 21 25 24 26 28 28 27 26 25 23 23 23 22 23 22 21 19 17 16 14
9 10 13 16 13 8 6 5 5 6 7 8 8 6 7 5 7 17 14 6 15 24 33 35 32 32 27 28 27 32 28 29 28 29 30 29 29 28 28 29 27 26 24 26 25 22 20 18 17
10 14 13 11 14 4 5 5 4 7 8 7 8 9 9 8 8 14 18 12 9 22 32 33 35 31 21 33 24 29 29 26 26 29 32 33 28 32 32 33 31 30 28 24 26 26 24 22 23
9 8 9 9 5 8 6 8 10 9 9 11 11 9 10 10 16 13 21 19 8 22 28 36 36 25 29 26 26 23 33 29 31 32 29 31 32 32 33 34 35 33 28 28 27 27 25 25 24
7 6 5 6 7 9 8 10 11 12 13 13 11 10 9 10 12 18 29 26 10 19 30 33 32 32 32 23 24 29 21 23 28 33 33 34 35 37 38 35 38 36 29 30 34 34 32 32 31
5 5 7 9 14 14 16 11 13 14 9 12 16 9 7 7 7 16 8 3 6 17 20 24 23 16 25 23 29 35 32 25 26 30 36 37 39 40 40 41 38 39 38 35 31 27 32 35 33
8 6 8 13 18 14 19 18 10 8 6 4 8 7 6 7 11 18 16 16 10 16 16 15 9 6 4 25 23 26 27 27 27 28 32 36 44 44 42 41 40 37 36 38 38 34 30 24 26
12 12 12 10 8 5 5 7 9 9 5 7 8 9 10 10 10 12 17 23 14 18 14 10 7 6 4 3 22 25 24 26 31 33 35 32 36 36 42 44 40 39 31 35 37 32 32 31 29
15 15 14 7 9 7 8 8 8 8 6 6 8 10 10 9 9 9 16 18 20 21 15 14 9 4 4 5 9 16 20 26 30 33 36 41 35 36 43 43 39 39 37 37 26 30 29 34 33
8 6 7 5 10 10 8 9 8 5 4 8 10 9 8 12 11 9 10 18 19 16 15 13 8 8 7 6 9 12 16 22 19 29 32 37 36 32 26 29 37 39 40 31 30 33 39 28 32
7 10 12 10 6 9 3 12 7 8 10 14 15 13 11 10 9 7 9 14 23 19 15 16 14 6 4 4 6 9 12 16 23 23 19 25 33 38 21 44 45 45 32 29 35 35 35 32 22
6 7 9 8 7 2 6 4 5 7 12 14 11 21 16 13 8 14 11 18 18 16 18 14 12 15 14 7 6 9 12 20 26 30 31 30 15 27 44 58 56 53 47 46 37 32 38 37 33
5 5 8 6 2 8 6 8 8 13 13 8 5 5 13 15 14 11 17 19 18 15 16 14 15 12 10 9 9 10 12 15 21 29 31 30 31 21 14 37 46 54 37 43 36 22 23 32 36
5 4 4 4 4 8 9 11 8 5 7 4 7 10 11 12 11 9 9 9 13 10 12 10 8 7 8 8 9 14 17 14 16 21 28 33 32 30 27 19 18 32 38 38 30 20 18 22 25
7 0 3 5 3 4 10 5 5 6 9 8 8 10 9 10 8 9 8 7 8 9 9 7 5 1 4 7 8 12 16 16 20 25 28 31 34 35 37 34 27 17 21 29 31 32 44 41 40
6 5 2 3 5 3 4 9 11 6 9 10 15 14 10 10 9 8 7 10 7 4 5 5 4 7 8 9 11 14 13 15 18 20 24 30 31 33 32 34 35 29 23 22 30 34 37 43 30
3 6 4 3 1 5 5 6 2 8 8 12 13 11 11 8 8 7 6 8 9 12 10 8 10 10 11 10 11 13 18 20 21 20 22 28 29 32 33 34 34 31 29 22 27 36 41 34 24
5 4 3 4 5 5 2 5 5 2 8 10 12 13 7 5 5 4 4 5 3 5 9 9 8 6 8 7 8 11 16 19 19 25 24 24 27 29 32 32 29 27 26 24 27 33 33 30 28
10 6 4 3 3 4 3 10 10 6 7 6 8 10 7 8 6 6 5 4 5 8 10 11 13 3 4 5 6 8 11 13 14 18 23 25 28 30 30 27 24 15 17 17 25 29 30 31 33
Wind_Direction
305 312 312 305 55 150 247 254 264 341 25 11 13 49 79 64 83 144 119 142 146 154 157 156 154 153 151 151 150 150 150 148 145 144 140 135 133 133 132 130 127 123 119 117 117 113 109 111 111
309 315 300 254 169 273 266 249 20 347 274 26 334 16 80 79 89 116 103 138 149 155 159 158 157 156 154 155 155 155 156 154 152 149 146 141 138 136 136 135 131 128 125 123 120 117 116 117 120
307 286 3 192 209 240 267 307 245 160 273 333 325 39 69 112 112 105 138 140 146 153 161 160 160 159 159 160 160 160 161 160 158 155 153 149 146 144 143 139 136 136 136 132 126 123 123 127 133
305 339 308 160 262 264 249 280 117 24 299 23 356 80 49 113 98 133 139 135 143 154 165 163 164 164 164 164 167 167 168 167 165 162 160 156 152 149 148 143 140 141 140 137 137 139 141 148 154
284 295 278 265 255 263 265 267 139 225 319 52 22 85 84 103 124 134 138 140 139 156 167 166 168 169 171 171 173 175 176 174 173 170 166 164 161 159 159 154 154 153 150 146 145 147 150 162 173
319 152 308 257 276 268 300 327 130 112 357 349 77 94 112 127 125 141 145 149 149 156 167 173 172 173 176 178 180 183 184 183 181 178 175 172 170 169 169 168 167 167 165 163 164 168 177 188 202
214 287 237 261 268 286 281 314 316 126 263 37 339 79 335 43 139 147 152 151 158 160 162 176 177 178 181 183 186 188 191 191 188 185 182 178 177 179 180 181 180 179 179 179 178 184 195 205 212
195 197 265 271 271 270 289 279 236 240 191 100 15 87 121 338 72 142 138 150 155 162 165 177 181 181 182 185 188 189 192 194 194 192 190 187 186 187 190 192 193 192 192 192 193 195 203 218 226
227 240 243 251 259 274 290 307 295 136 141 89 53 84 146 118 31 286 164 149 151 160 165 177 182 184 186 188 190 193 192 194 196 197 197 195 194 197 198 201 199 199 201 207 209 210 213 225 237
186 218 231 250 260 262 280 10 323 40 27 137 120 309 258 166 202 240 238 181 156 161 173 167 178 182 184 193 199 196 194 195 200 201 200 204 204 205 208 209 208 208 209 209 216 220 223 226 234
249 231 243 248 252 300 259 336 342 44 16 26 347 333 325 33 307 233 256 245 173 178 170 167 167 174 185 187 206 205 203 202 206 209 211 210 209 211 212 211 211 215 215 217 219 222 227 234 231
242 238 234 262 272 280 297 311 302 343 222 302 295 289 260 333 325 330 346 55 58 132 156 164 168 162 178 186 206 212 212 214 212 214 214 211 210 211 214 213 213 215 222 221 220 224 230 234 235
238 237 234 248 261 253 243 251 268 286 262 234 256 277 295 282 288 295 294 56 89 124 148 165 174 179 169 188 206 209 213 213 216 219 217 217 213 209 212 216 219 223 225 228 224 219 221 224 228
241 233 235 242 263 274 253 239 237 277 271 271 229 228 246 228 241 264 276 280 135 145 163 168 182 184 186 192 195 206 211 218 217 220 220 220 221 215 213 217 215 220 224 221 218 218 219 227 220
270 279 276 236 242 268 261 264 243 237 244 244 237 214 222 218 234 241 254 258 242 165 173 175 176 197 217 211 204 206 214 208 215 218 221 220 220 222 215 219 218 221 222 225 220 219 219 222 217
307 307 266 272 242 248 190 245 241 229 227 237 224 214 217 231 224 243 241 243 198 140 169 179 189 201 209 202 217 229 217 214 220 220 220 219 221 222 219 223 224 221 223 225 226 219 217 219 222
304 233 275 267 240 242 218 235 228 238 241 235 221 198 217 232 263 248 207 166 132 117 161 176 184 208 220 218 212 230 229 226 224 223 222 226 224 223 220 223 226 226 229 228 229 223 224 225 217
247 251 242 246 259 231 239 224 229 232 247 163 161 199 217 236 246 233 220 235 158 143 132 139 155 113 181 235 229 232 233 240 230 232 230 231 227 224 220 225 229 227 230 233 236 238 235 234 233
265 272 277 275 280 15 261 194 220 227 239 234 212 204 211 225 232 242 237 223 187 147 153 167 186 246 55 247 223 236 237 240 236 235 240 242 229 227 228 227 231 232 227 232 236 241 244 243 240
245 260 273 290 326 345 313 272 245 230 234 236 215 229 223 221 230 217 203 198 185 164 174 166 161 194 254 241 227 240 248 254 248 245 242 240 236 231 237 224 226 228 228 233 234 228 224 231 226
286 284 292 286 314 312 323 305 312 277 271 269 257 237 210 204 212 219 214 206 194 162 140 134 157 193 204 233 272 283 283 280 278 254 254 252 246 245 237 242 234 232 228 222 231 238 226 220 220
249 280 295 284 258 276 301 286 298 283 257 256 250 235 233 210 194 184 100 89 99 100 92 84 76 108 166 209 224 250 296 311 306 300 294 276 263 241 233 248 257 260 254 238 229 233 231 223 213
248 259 260 268 277 305 303 313 277 267 280 274 246 231 220 212 165 111 114 107 96 95 96 83 67 66 65 45 357 325 306 297 300 299 302 300 310 252 240 232 223 237 253 254 249 233 232 232 229
16 0 346 341 327 268 239 250 271 260 260 310 346 315 214 120 111 110 112 106 98 91 95 85 80 61 38 28 8 342 310 297 298 302 304 304 304 300 275 241 242 248 244 243 251 250 261 265 259
339 11 316 315 295 251 239 265 228 269 326 325 30 61 81 96 96 92 90 91 95 89 99 95 69 49 41 16 355 352 326 295 297 298 300 303 304 306 305 301 282 256 256 255 251 231 245 271 270
331 11 185 256 259 299 330 260 240 347 12 11 46 110 96 74 87 95 94 85 101 102 110 110 110 79 314 295 312 328 338 320 302 297 292 293 295 298 300 300 307 301 275 259 255 250 254 262 261
341 354 357 9 22 294 228 281 276 18 2 19 42 57 60 84 82 77 68 84 69 44 137 144 200 243 221 243 273 293 307 324 329 320 327 303 294 298 304 303 305 310 291 270 253 248 250 252 244
333 316 10 44 315 267 239 251 216 43 3 7 8 65 47 45 47 34 26 22 49 44 27 351 308 267 218 230 246 257 274 286 298 318 328 318 321 310 303 304 305 303 299 282 249 241 246 232 221
287 269 207 182 181 219 247 250 124 113 42 21 24 15 3 52 37 1 347 360 49 2 334 316 329 287 229 224 242 266 268 271 283 290 304 315 316 317 323 315 305 296 294 271 242 230 229 217 219
283 305 45 189 254 240 236 255 310 94 56 32 348 330 323 333 338 323 298 289 313 302 282 262 273 275 277 271 281 296 302 297 286 296 301 306 310 315 313 317 320 342 313 262 241 231 220 209 221